Weather History for KCHO - May, 2014

Change the Weather History Date:

Friday, May 16, 2014

  Actual Average Record
Temperature  
Mean Temperature 63 °F 63 °F  
Max Temperature 71 °F 75 °F 92 °F (1900)
Min Temperature 54 °F 52 °F 40 °F (1984)
Degree Days  
Heating Degree Days 2 4  
Month to date heating degree days 24 84  
Since 1 July heating degree days 4555 4396  
Cooling Degree Days 0 2  
Month to date cooling degree days 54 23  
Year to date cooling degree days 63 44  
Growing Degree Days 12 (Base 50)    
Moisture  
Dew Point 56 °F    
Average Humidity 71    
Maximum Humidity 100    
Minimum Humidity 42    
Precipitation  
Precipitation 1.54 in 0.12 in 1.54 in (2014)
Month to date precipitation 4.26 1.88  
Year to date precipitation 17.67 14.37  
Sea Level Pressure  
Sea Level Pressure 29.83 in    
Wind  
Wind Speed 4 mph (SW)    
Max Wind Speed 13 mph    
Max Gust Speed 17 mph    
Visibility 6 miles    
Events Rain    
T = Trace of Precipitation, MM = Missing Value Source: NWS Daily Summary

Daily Weather History Graph

Daily Weather History Graph

Search for Another Location

Airport or City:

Trip Planner

Search our weather history database for the weather conditions in past years. The results will help you decide how hot, cold, wet, or windy it might be!

Date:

Astronomy

May. 16, 2014 Rise Set
Actual Time 6:02 AM EDT 8:18 PM EDT
Civil Twilight 5:32 AM EDT 8:48 PM EDT
Nautical Twilight 4:56 AM EDT 9:24 PM EDT
Astronomical Twilight 4:16 AM EDT 10:05 PM EDT
Moon 10:23 PM EDT (5/16) 7:42 AM EDT (5/16)
Length of Visible Light 15h 15m
Length of Day
14h 16m
Waning Gibbous, 95% of the Moon is Illuminated
May 16
Waning Gibbous
May 21
Last Quarter
May 28
New
Jun 5
First Quarter
Jun 13
Full

Hourly Weather History & Observations

Time (EDT) Temp. Dew Point Humidity Pressure Visibility Wind Dir Wind Speed Gust Speed Precip Events Conditions
12:01 AM 68.0 °F 66.0 °F 93% 29.82 in 3.0 mi SE 12.7 mph - 0.06 in Rain Rain
12:09 AM 68.0 °F 66.0 °F 93% 29.81 in 3.0 mi SE 12.7 mph 25.3 mph 0.11 in Rain Heavy Rain
12:11 AM 68.0 °F 66.0 °F 93% 29.81 in 2.5 mi SE 18.4 mph 25.3 mph 0.12 in Rain Heavy Rain
12:16 AM 68.0 °F 66.0 °F 93% 29.80 in 2.5 mi SSE 19.6 mph 32.2 mph 0.16 in Rain Heavy Rain
12:29 AM 68.0 °F 66.0 °F 93% 29.82 in 2.0 mi South 17.3 mph 28.8 mph 0.28 in Rain Heavy Rain
12:32 AM 68.0 °F 66.0 °F 93% 29.82 in 3.0 mi South 15.0 mph 28.8 mph 0.31 in Rain Rain
12:34 AM 68.0 °F 66.0 °F 93% 29.82 in 4.0 mi South 15.0 mph 28.8 mph 0.32 in Rain Light Rain
12:39 AM 68.0 °F 66.0 °F 93% 29.82 in 6.0 mi South 15.0 mph - 0.36 in Rain Rain
12:45 AM 68.0 °F 66.0 °F 93% 29.82 in 2.5 mi South 13.8 mph - 0.40 in Rain Heavy Rain
12:48 AM 68.0 °F 66.2 °F 94% 29.82 in 1.8 mi SSW 11.5 mph - 0.44 in Rain Heavy Rain
12:53 AM 66.9 °F 66.0 °F 97% 29.80 in 1.2 mi South 11.5 mph - 0.49 in Rain Heavy Rain
1:25 AM 66.9 °F 66.0 °F 97% 29.79 in 0.8 mi South 10.4 mph 17.3 mph 0.40 in Rain Heavy Rain
1:31 AM 66.9 °F 66.0 °F 97% 29.79 in 1.0 mi South 9.2 mph - 0.49 in Rain Heavy Rain
1:44 AM 66.0 °F 64.9 °F 96% 29.78 in 1.0 mi West 9.2 mph - 0.69 in Rain Heavy Rain
2:00 AM 63.0 °F 61.0 °F 93% 29.79 in 1.8 mi Variable 6.9 mph - 0.10 in Rain Heavy Rain
2:07 AM 62.1 °F 60.1 °F 93% 29.79 in 3.0 mi WNW 5.8 mph - 0.20 in Rain Rain
2:25 AM 62.1 °F 59.0 °F 90% 29.79 in 5.0 mi Variable 6.9 mph - 0.42 in Rain Rain
2:53 AM 60.1 °F 57.9 °F 93% 29.78 in 3.0 mi West 3.5 mph - 0.67 in Rain Rain
3:02 AM 60.1 °F 57.9 °F 93% 29.79 in 2.5 mi WNW 4.6 mph - 0.05 in Rain Rain
3:10 AM 60.1 °F 57.9 °F 93% 29.78 in 6.0 mi WNW 3.5 mph - 0.09 in Rain Light Rain
4:53 AM - - N/A% 29.80 in - North - - N/A   Unknown
5:53 AM - - N/A% 29.83 in - North - - N/A   Unknown
6:31 AM 55.9 °F 52.0 °F 87% 29.84 in 10.0 mi WNW 4.6 mph - N/A   Mostly Cloudy
6:53 AM 55.9 °F 52.0 °F 87% 29.84 in 10.0 mi West 5.8 mph - N/A   Overcast
7:53 AM 55.9 °F 51.1 °F 84% 29.85 in 10.0 mi WNW 3.5 mph - N/A   Scattered Clouds
8:53 AM 61.0 °F 51.1 °F 70% 29.86 in 10.0 mi Calm Calm - N/A   Clear
10:53 AM 64.0 °F 50.0 °F 60% 29.88 in 10.0 mi WNW 6.9 mph - N/A   Overcast
11:53 AM 64.9 °F 48.9 °F 56% 29.87 in 10.0 mi Calm Calm - N/A   Mostly Cloudy
12:53 PM 66.0 °F 48.0 °F 52% 29.86 in 10.0 mi Variable 5.8 mph - N/A   Mostly Cloudy
1:53 PM 66.0 °F 48.0 °F 52% 29.85 in 10.0 mi Variable 5.8 mph - N/A   Mostly Cloudy
2:53 PM 66.9 °F 46.9 °F 49% 29.85 in 10.0 mi Variable 4.6 mph - N/A   Mostly Cloudy
4:53 PM 69.1 °F 48.0 °F 47% 29.84 in 10.0 mi North 3.5 mph - N/A   Mostly Cloudy
5:53 PM 70.0 °F 46.9 °F 44% 29.84 in 10.0 mi Variable 3.5 mph - N/A   Clear
6:53 PM 68.0 °F 45.0 °F 43% 29.85 in 10.0 mi Calm Calm - N/A   Clear
7:53 PM 66.9 °F 46.0 °F 47% 29.87 in 10.0 mi Calm Calm - N/A   Mostly Cloudy
8:53 PM 61.0 °F 46.0 °F 58% 29.90 in 10.0 mi Variable 3.5 mph - 0.00 in Rain Light Rain
9:53 PM 59.0 °F 45.0 °F 60% 29.92 in 10.0 mi Calm Calm - 0.00 in   Clear
10:53 PM 59.0 °F 43.0 °F 55% 29.95 in 10.0 mi West 3.5 mph - N/A   Partly Cloudy
11:53 PM 55.9 °F 45.0 °F 67% 29.96 in 10.0 mi West 5.8 mph - N/A   Scattered Clouds